• In Moldova, Republic
  • List of Countries
  • For 7 days
  • Water Temperature
  • Satellite Maps
  • Weather Map
  • Weather Widgets
  • user-avatar
    Login

    Hourly Weather Brisbane

    Today, 23 January, Tuesday

    Time Temperature Precipitation Wind Pressure Humidity
    00:00 +23°C° 0 mm 1 mps 758 mmHg 85%
    01:00 +23°C° 0 mm 1 mps 758 mmHg 86%
    02:00 +23°C° 0 mm 1 mps 758 mmHg 87%
    03:00 +23°C° 0 mm 1 mps 757 mmHg 87%
    04:00 +23°C° 0 mm 1 mps 757 mmHg 86%
    05:00 +24°C° 0 mm 1 mps 757 mmHg 82%
    06:00 +25°C° 0 mm 1 mps 758 mmHg 77%
    07:00 +26°C° 0 mm 1 mps 758 mmHg 72%
    08:00 +28°C° 0 mm 1 mps 758 mmHg 65%
    09:00 +29°C° 0 mm 1 mps 758 mmHg 57%
    10:00 +31°C° 0 mm 1 mps 758 mmHg 50%
    11:00 +32°C° 0 mm 2 mps 757 mmHg 47%
    12:00 +35°C° 0 mm 2 mps 757 mmHg 43%
    13:00 +36°C° 0 mm 3 mps 757 mmHg 39%
    14:00 +35°C° 0 mm 3 mps 756 mmHg 41%
    15:00 +35°C° 0 mm 4 mps 756 mmHg 43%
    16:00 +34°C° 0 mm 4 mps 756 mmHg 45%
    17:00 +32°C° 0 mm 4 mps 756 mmHg 53%
    18:00 +29°C° 0 mm 4 mps 756 mmHg 61%
    19:00 +27°C° 0 mm 3 mps 757 mmHg 69%
    20:00 +26°C° 0 mm 3 mps 757 mmHg 74%
    21:00 +25°C° 0 mm 2 mps 757 mmHg 79%
    22:00 +25°C° 0 mm 2 mps 758 mmHg 83%
    23:00 +24°C° 0 mm 2 mps 758 mmHg 84%

    Tomorrow, 24 January, Wednesday

    Time Temperature Precipitation Wind Pressure Humidity
    00:00 +24°C° 0 mm 2 mps 757 mmHg 85%
    01:00 +24°C° 0 mm 1 mps 757 mmHg 86%
    02:00 +24°C° 0 mm 1 mps 757 mmHg 86%
    03:00 +24°C° 0 mm 1 mps 757 mmHg 86%
    04:00 +24°C° 0 mm 1 mps 757 mmHg 86%
    05:00 +25°C° 0 mm 2 mps 757 mmHg 82%
    06:00 +26°C° 0 mm 2 mps 757 mmHg 77%
    07:00 +26°C° 0 mm 2 mps 757 mmHg 73%
    08:00 +28°C° 0 mm 2 mps 757 mmHg 64%
    09:00 +30°C° 0 mm 3 mps 757 mmHg 55%
    10:00 +33°C° 0 mm 3 mps 757 mmHg 46%
    11:00 +34°C° 0.1 mm 3 mps 757 mmHg 46%
    12:00 +35°C° 0.1 mm 4 mps 756 mmHg 45%
    13:00 +35°C° 0.1 mm 4 mps 756 mmHg 44%
    14:00 +35°C° 0.1 mm 5 mps 755 mmHg 47%
    15:00 +34°C° 0.1 mm 5 mps 755 mmHg 51%
    16:00 +33°C° 0.1 mm 5 mps 754 mmHg 54%
    17:00 +32°C° 0 mm 4 mps 755 mmHg 60%
    18:00 +29°C° 0 mm 4 mps 755 mmHg 67%
    19:00 +27°C° 0 mm 4 mps 756 mmHg 74%
    20:00 +27°C° 0 mm 3 mps 756 mmHg 78%
    21:00 +26°C° 0 mm 3 mps 757 mmHg 83%
    22:00 +25°C° 0 mm 3 mps 757 mmHg 87%
    23:00 +25°C° 0 mm 2 mps 757 mmHg 88%

    Day after tomorrow, 25 January, Thursday

    Time Temperature Precipitation Wind Pressure Humidity
    00:00 +25°C° 0 mm 2 mps 756 mmHg 90%
    01:00 +24°C° 0 mm 2 mps 756 mmHg 91%
    02:00 +24°C° 0 mm 2 mps 756 mmHg 91%
    03:00 +24°C° 0 mm 1 mps 756 mmHg 92%
    04:00 +24°C° 0 mm 1 mps 755 mmHg 93%
    05:00 +25°C° 0.1 mm 2 mps 756 mmHg 89%
    06:00 +26°C° 0.1 mm 2 mps 756 mmHg 85%
    07:00 +26°C° 0.1 mm 2 mps 757 mmHg 81%
    08:00 +28°C° 0.1 mm 3 mps 757 mmHg 73%
    09:00 +30°C° 0.1 mm 3 mps 757 mmHg 64%
    10:00 +33°C° 0.1 mm 4 mps 757 mmHg 55%
    11:00 +34°C° 0.1 mm 4 mps 756 mmHg 52%
    12:00 +34°C° 0.1 mm 4 mps 756 mmHg 50%
    13:00 +35°C° 0.1 mm 5 mps 755 mmHg 47%
    14:00 +34°C° 0 mm 5 mps 755 mmHg 49%
    15:00 +34°C° 0 mm 5 mps 755 mmHg 50%
    16:00 +33°C° 0 mm 5 mps 754 mmHg 52%
    17:00 +32°C° 0 mm 5 mps 755 mmHg 59%
    18:00 +29°C° 0 mm 5 mps 755 mmHg 67%
    19:00 +28°C° 0 mm 4 mps 756 mmHg 74%
    20:00 +27°C° 0 mm 4 mps 756 mmHg 78%
    21:00 +26°C° 0 mm 4 mps 757 mmHg 82%
    22:00 +26°C° 0 mm 3 mps 757 mmHg 86%
    23:00 +26°C° 0 mm 3 mps 757 mmHg 87%

    26 January, Friday

    Time Temperature Precipitation Wind Pressure Humidity
    00:00 +25°C° 0 mm 3 mps 756 mmHg 88%
    01:00 +25°C° 0 mm 3 mps 756 mmHg 89%
    02:00 +25°C° 0.1 mm 3 mps 756 mmHg 89%
    03:00 +25°C° 0.1 mm 3 mps 756 mmHg 90%
    04:00 +25°C° 0.1 mm 3 mps 755 mmHg 90%
    05:00 +26°C° 0 mm 3 mps 756 mmHg 87%
    06:00 +26°C° 0 mm 3 mps 756 mmHg 84%
    07:00 +27°C° 0 mm 4 mps 757 mmHg 81%
    08:00 +29°C° 0 mm 4 mps 757 mmHg 71%
    09:00 +32°C° 0 mm 5 mps 757 mmHg 61%
    10:00 +34°C° 0 mm 5 mps 757 mmHg 51%
    11:00 +34°C° 0.1 mm 5 mps 757 mmHg 50%
    12:00 +35°C° 0.1 mm 6 mps 756 mmHg 49%
    13:00 +35°C° 0.1 mm 6 mps 755 mmHg 47%
    14:00 +35°C° 0 mm 6 mps 755 mmHg 49%
    15:00 +34°C° 0 mm 6 mps 755 mmHg 51%
    16:00 +34°C° 0 mm 6 mps 755 mmHg 53%
    17:00 +32°C° 0 mm 5 mps 755 mmHg 59%
    18:00 +29°C° 0 mm 5 mps 756 mmHg 66%
    19:00 +28°C° 0 mm 4 mps 756 mmHg 73%
    20:00 +27°C° 0 mm 4 mps 757 mmHg 78%
    21:00 +27°C° 0 mm 4 mps 757 mmHg 82%
    22:00 +26°C° 0 mm 3 mps 757 mmHg 87%
    23:00 +26°C° 0.1 mm 3 mps 757 mmHg 88%

    27 January, Saturday

    Time Temperature Precipitation Wind Pressure Humidity
    00:00 +25°C° 0.1 mm 3 mps 757 mmHg 89%
    01:00 +25°C° 0.1 mm 3 mps 756 mmHg 91%
    02:00 +25°C° 0.1 mm 3 mps 756 mmHg 91%
    03:00 +25°C° 0.1 mm 3 mps 756 mmHg 92%
    04:00 +25°C° 0.1 mm 3 mps 755 mmHg 92%
    05:00 +26°C° 0.1 mm 3 mps 756 mmHg 89%
    06:00 +26°C° 0.1 mm 4 mps 756 mmHg 86%
    07:00 +27°C° 0.1 mm 4 mps 757 mmHg 83%
    08:00 +29°C° 0.1 mm 5 mps 757 mmHg 73%
    09:00 +32°C° 0.1 mm 5 mps 757 mmHg 64%
    10:00 +33°C° 0.1 mm 5 mps 757 mmHg 54%
    11:00 +34°C° 0.2 mm 5 mps 756 mmHg 53%
    12:00 +34°C° 0.2 mm 6 mps 755 mmHg 52%
    13:00 +35°C° 0.2 mm 6 mps 755 mmHg 51%
    14:00 +34°C° 0.1 mm 6 mps 755 mmHg 51%
    15:00 +34°C° 0.1 mm 6 mps 754 mmHg 52%
    16:00 +33°C° 0.1 mm 6 mps 754 mmHg 53%
    17:00 +32°C° 0.1 mm 6 mps 755 mmHg 60%
    18:00 +29°C° 0.1 mm 5 mps 755 mmHg 67%
    19:00 +28°C° 0.1 mm 5 mps 756 mmHg 73%
    20:00 +27°C° 0.2 mm 4 mps 756 mmHg 78%
    21:00 +26°C° 0.2 mm 4 mps 756 mmHg 83%
    22:00 +26°C° 0.2 mm 4 mps 756 mmHg 88%
    23:00 +26°C° 0.2 mm 4 mps 756 mmHg 89%

    28 January, Sunday

    Time Temperature Precipitation Wind Pressure Humidity
    00:00 +25°C° 0.2 mm 4 mps 755 mmHg 89%
    01:00 +25°C° 0.2 mm 4 mps 755 mmHg 90%
    02:00 +25°C° 0.2 mm 4 mps 755 mmHg 91%
    03:00 +25°C° 0.2 mm 4 mps 754 mmHg 91%
    04:00 +25°C° 0.2 mm 4 mps 754 mmHg 91%
    05:00 +26°C° 0.2 mm 4 mps 754 mmHg 88%
    06:00 +26°C° 0.2 mm 4 mps 755 mmHg 85%
    07:00 +27°C° 0.2 mm 5 mps 755 mmHg 83%
    08:00 +28°C° 0.3 mm 5 mps 755 mmHg 74%
    09:00 +30°C° 0.3 mm 6 mps 755 mmHg 66%
    10:00 +33°C° 0.3 mm 6 mps 755 mmHg 58%
    11:00 +33°C° 0.2 mm 6 mps 755 mmHg 55%
    12:00 +34°C° 0.2 mm 6 mps 754 mmHg 53%
    13:00 +34°C° 0.2 mm 7 mps 754 mmHg 51%
    14:00 +34°C° 0.2 mm 6 mps 754 mmHg 53%
    15:00 +33°C° 0.2 mm 6 mps 753 mmHg 55%
    16:00 +32°C° 0.2 mm 6 mps 753 mmHg 58%
    17:00 +30°C° 0.6 mm 6 mps 753 mmHg 66%
    18:00 +28°C° 0.6 mm 5 mps 754 mmHg 74%
    19:00 +26°C° 0.6 mm 5 mps 754 mmHg 82%
    20:00 +26°C° 0.2 mm 5 mps 754 mmHg 84%
    21:00 +25°C° 0.2 mm 5 mps 755 mmHg 86%
    22:00 +25°C° 0.2 mm 5 mps 755 mmHg 88%
    23:00 +23°C° 0.1 mm 4 mps 754 mmHg 88%
    Show more